sat.trackr.live / text

‹ back to catalog

STARLINK-36662

NORAD 67832 · 2026-033M

PAYLOAD ACTIVE UNKNOWN

§ Identity

Operator
Country
US
Launch date
2026-02-16
Launch site
AFETR
Launch vehicle
Mass (kg)
RCS (m²)

Purposes: comms

External: N2YO · Heavens-Above · Gunter

§ Orbital elements

Epoch: 2026-09-19T00:54:24.169536Z

Period
94.27 min
Inclination
42.9990°
Eccentricity
0.0001283
Mean motion
15.27588428 rev/d
Perigee alt
482.1 km
Apogee alt
483.9 km
Semi-major
6,861.2 km
B*
6.5257e-4
RAAN
248.1067°
Arg perigee
263.0965°
Mean anomaly
96.9740°
Rev number
3,432

§ Raw data

STARLINK-366621 67832U 26033M   26262.03777974  .00017743  00000+0  65257-3 0  99912 67832  42.9990 248.1067 0001283 263.0965  96.9740 15.27588428 34321

JSON: /api/v1/satellites/67832 · /tle

For live sub-satellite position, see the globe view (requires WebGL).

§ Visibility from observer

Set your observer location to see the next 7 days of passes ≥ 10°. The values pass through the URL so the page stays shareable.

No JS? Fill the form by hand. The geolocation button needs JavaScript.